Regional Weather Roundup
Issued by NWS

Home | Current Version | Previous Version | Text Only | Print | Product List | Glossary Off
Versions: 1 2 3 4 5 6 7 8 9 10 11 12 13 14 15 16 17 18 19 20 21 22 23 24 25 26 27 28 29 30 31 32 33 34 35 36 37 38 39 40 41 42 43 44 45 46 47 48 49 50

000
ASUS45 KBOU 061207
RWRCO

WEATHER ROUNDUP FOR COLORADO
NATIONAL WEATHER SERVICE DENVER/BOULDER CO
500 AM MST TUE DEC 06 2016

NOTE: "FAIR" INDICATES FEW OR NO CLOUDS BELOW 12000 FEET WITH NO
SIGNIFICANT WEATHER AND/OR OBSTRUCTIONS TO VISIBILITY.

COZ001>005-013-030-031-061300-
...NORTHWEST COLORADO...

CITY           SKY/WX    TMP DP  RH WIND       PRES   REMARKS
CRAIG          FAIR      -5 -11  75 CALM      29.93F
HAYDEN         MOCLDY     1  -9  60 E14       29.90F WCI -17
MEEKER         CLOUDY    10  -1  61 CALM      29.90F
MOUNT WERNER   NOT AVBL
STEAMBOAT SPGS NOT AVBL
WALDEN         NOT AVBL
$$

COZ006>008-011-061300-
...WEST CENTRAL VALLEYS...

CITY           SKY/WX    TMP DP  RH WIND       PRES   REMARKS
GRAND JUNCTION FAIR      19   6  57 E8        29.92F WCI   9
MONTROSE       FAIR      14   7  73 SE7       29.94F WCI   4
EAGLE          CLOUDY    19   8  62 E5        29.91F WCI  12
RIFLE          CLOUDY    22   6  50 SW5       29.92F WCI  16
DELTA          NOT AVBL
NUCLA          FAIR      18  12  79 E6        29.92S WCI   9
$$

COZ017>023-064>068-061300-
...SOUTHWEST COLORADO...

CITY           SKY/WX    TMP DP  RH WIND       PRES   REMARKS
DURANGO        FAIR      19  13  77 NE7       29.88F WCI  10
CORTEZ         FAIR      24  18  77 CALM      29.87F
PAGOSA SPRINGS FAIR      16  13  88 CALM      29.89S
TELLURIDE      CLOUDY    21   4  47 SE8       29.87F WCI  11
WOLF CREEK PAS NOT AVBL
$$

COZ009-010-012-014-032>034-037-058>063-061300-
...CENTRAL COLORADO...

CITY           SKY/WX    TMP DP  RH WIND       PRES   REMARKS
ASPEN          MOCLDY    11   5  77 CALM      29.83F
BUENA VISTA    FAIR      15   4  60 SE5       29.77F WCI   8
COPPER MTN     NOT AVBL
BERTHOUD PASS  NOT AVBL
COTTONWOOD PAS NOT AVBL
GUNNISON       FAIR       4  -1  80 CALM      29.88F
KREMMLING      NOT AVBL
LEADVILLE      FAIR       6   1  80 NE6       29.74F WCI  -4
SALIDA         FAIR      15  -3  46 SE15G23   29.89F WCI  -1
SUNLIGHT       NOT AVBL
WILKERSON PASS NOT AVBL
$$

COZ069>075-061300-
...SAN LUIS VALLEY/SANGRE DE CRISTO MOUNTAINS...

CITY           SKY/WX    TMP DP  RH WIND       PRES   REMARKS
ALAMOSA        FAIR       3   0  87 NE3       29.83F
LA VETA PASS   NOT AVBL
SAGUACHE       NOT AVBL
$$

COZ035-036-038>040-061300-
...NORTHERN COLORADO FRONT RANGE...

CITY           SKY/WX    TMP DP  RH WIND       PRES   REMARKS
DENVER INTL AP FAIR       7  -1  70 S14       29.92F WCI -10
DMNS CITY PARK   N/A     16  -4  40 SE8       29.92F WCI   5
AURORA         PTCLDY     9  -2  61 S9        29.92F WCI  -4
FRONT RANGE AP NOT AVBL
ERIE MUNI ARPT NOT AVBL
BOULDER MUN AP NOT AVBL
CENTENNIAL     FAIR      13  -4  46 S12       29.90F WCI  -1
BROOMFIELD     NOT AVBL
FORT COLLINS   FAIR      10  -8  44 SE8       29.94S WCI  -1
LONGMONT       NOT AVBL
$$

COZ041-046-047-076>085-087-088-061300-
...PIKES PEAK/PALMER DIVIDE AND SOUTHERN FOOTHILLS...

CITY           SKY/WX    TMP DP  RH WIND       PRES   REMARKS
COLO. SPRINGS  FAIR      12  -2  53 SE7       29.91F WCI   1
A. F. ACADEMY  FAIR       3  -6  66 N5        29.88S WCI  -6
SCHRIEVER AFB  NOT AVBL
ELLICOTT       FAIR     N/A N/A N/A CALM        N/A
FALCON         FAIR       9  -6  49 SW5       29.88S WCI   1
FORT CARSON    FAIR      14   0  53 S13       29.90F WCI   0
LIMON          FAIR       2   0  91 CALM      29.95S
MONUMENT HILL  NOT AVBL
TRINIDAD       FAIR      12   0  58 CALM      29.96F
$$

COZ042>045-048>051-090-091-061300-
...NORTHEAST COLORADO...

CITY           SKY/WX    TMP DP  RH WIND       PRES   REMARKS
GREELEY ARPT   FAIR       9  -1  64 SW12      29.97R WCI  -6
AKRON          MOCLDY     8   1  73 NW10      29.95F WCI  -6
BURLINGTON     FAIR       8   1  73 NW8       30.00S WCI  -4
WRAY           NOT AVBL
STERLING       NOT AVBL
HOLYOKE        NOT AVBL
FORT MORGAN    FAIR       8   2  75 S7        29.98R WCI  -3
$$

COZ086-089-092>099-061300-
...SOUTHEAST COLORADO...

CITY           SKY/WX    TMP DP  RH WIND       PRES   REMARKS
PUEBLO         FAIR      10   1  67 CALM      29.99F
LA JUNTA       FAIR      19   6  57 CALM      30.03S
LAMAR          FAIR      12   5  73 SW5       30.04  WCI   4
SPRINGFIELD      N/A     14   6  70 NW5       30.02R WCI   6
$$



USA.gov is the U.S. government's official web portal to all federal, state and local government web resources and services.